• In Netherlands
  • List of Countries
  • For 7 days
  • Water Temperature
  • Satellite Maps
  • Weather Map
  • Weather Widgets
  • user-avatar
    Login

    Hourly Weather Linz

    Today, 29 May, Monday

    Time Temperature Precipitation Wind Pressure Humidity
    00:00 +13°C° 0 mm 1 mps 736 mmHg 89%
    01:00 +13°C° 0 mm 1 mps 736 mmHg 89%
    02:00 +13°C° 0 mm 1 mps 735 mmHg 89%
    03:00 +13°C° 0 mm 1 mps 735 mmHg 89%
    04:00 +12°C° 0 mm 1 mps 735 mmHg 89%
    05:00 +15°C° 0 mm 1 mps 735 mmHg 83%
    06:00 +19°C° 0 mm 1 mps 735 mmHg 76%
    07:00 +21°C° 0 mm 1 mps 735 mmHg 70%
    08:00 +23°C° 0 mm 1 mps 735 mmHg 65%
    09:00 +25°C° 0 mm 1 mps 735 mmHg 59%
    10:00 +27°C° 0 mm 1 mps 734 mmHg 54%
    11:00 +28°C° 0 mm 1 mps 734 mmHg 51%
    12:00 +28°C° 0 mm 1 mps 734 mmHg 48%
    13:00 +29°C° 0 mm 1 mps 734 mmHg 46%
    14:00 +29°C° 0 mm 1 mps 733 mmHg 46%
    15:00 +29°C° 0 mm 1 mps 733 mmHg 47%
    16:00 +29°C° 0 mm 1 mps 733 mmHg 48%
    17:00 +27°C° 0 mm 1 mps 733 mmHg 57%
    18:00 +25°C° 0 mm 1 mps 732 mmHg 67%
    19:00 +23°C° 0 mm 1 mps 732 mmHg 76%
    20:00 +21°C° 0 mm 1 mps 732 mmHg 80%
    21:00 +18°C° 0 mm 1 mps 732 mmHg 83%
    22:00 +14°C° 0 mm 0 mps 732 mmHg 87%
    23:00 +15°C° 0 mm 1 mps 732 mmHg 87%

    Tomorrow, 30 May, Tuesday

    Time Temperature Precipitation Wind Pressure Humidity
    00:00 +15°C° 0 mm 1 mps 732 mmHg 87%
    01:00 +15°C° 0 mm 1 mps 732 mmHg 87%
    02:00 +15°C° 0 mm 1 mps 732 mmHg 87%
    03:00 +14°C° 0 mm 1 mps 732 mmHg 87%
    04:00 +14°C° 0 mm 1 mps 732 mmHg 87%
    05:00 +18°C° 0 mm 1 mps 732 mmHg 81%
    06:00 +21°C° 0 mm 1 mps 733 mmHg 76%
    07:00 +23°C° 0 mm 1 mps 733 mmHg 70%
    08:00 +24°C° 0 mm 1 mps 733 mmHg 66%
    09:00 +26°C° 0 mm 1 mps 733 mmHg 62%
    10:00 +27°C° 0 mm 1 mps 733 mmHg 58%
    11:00 +28°C° 0.1 mm 2 mps 733 mmHg 58%
    12:00 +28°C° 0.1 mm 2 mps 733 mmHg 57%
    13:00 +29°C° 0.1 mm 2 mps 733 mmHg 57%
    14:00 +29°C° 0.4 mm 2 mps 733 mmHg 59%
    15:00 +28°C° 0.4 mm 2 mps 733 mmHg 61%
    16:00 +28°C° 0.4 mm 1 mps 733 mmHg 63%
    17:00 +27°C° 1.3 mm 1 mps 733 mmHg 71%
    18:00 +25°C° 1.3 mm 1 mps 733 mmHg 79%
    19:00 +24°C° 1.3 mm 1 mps 733 mmHg 86%
    20:00 +23°C° 1.1 mm 1 mps 733 mmHg 88%
    21:00 +22°C° 1.1 mm 1 mps 734 mmHg 90%
    22:00 +19°C° 1.1 mm 2 mps 734 mmHg 92%
    23:00 +19°C° 0.6 mm 2 mps 734 mmHg 93%

    Day after tomorrow, 31 May, Wednesday

    Time Temperature Precipitation Wind Pressure Humidity
    00:00 +19°C° 0.6 mm 2 mps 734 mmHg 94%
    01:00 +19°C° 0.6 mm 2 mps 734 mmHg 96%
    02:00 +18°C° 0.4 mm 2 mps 734 mmHg 96%
    03:00 +18°C° 0.4 mm 2 mps 734 mmHg 96%
    04:00 +19°C° 0.4 mm 1 mps 734 mmHg 97%
    05:00 +20°C° 0.2 mm 1 mps 735 mmHg 96%
    06:00 +19°C° 0.2 mm 2 mps 735 mmHg 94%
    07:00 +20°C° 0.2 mm 2 mps 735 mmHg 93%
    08:00 +21°C° 0.3 mm 2 mps 735 mmHg 89%
    09:00 +23°C° 0.3 mm 2 mps 735 mmHg 85%
    10:00 +24°C° 0.3 mm 2 mps 735 mmHg 81%
    11:00 +24°C° 0.3 mm 2 mps 735 mmHg 78%
    12:00 +25°C° 0.3 mm 2 mps 735 mmHg 75%
    13:00 +26°C° 0.3 mm 2 mps 735 mmHg 72%
    14:00 +26°C° 0.4 mm 2 mps 735 mmHg 72%
    15:00 +25°C° 0.4 mm 2 mps 735 mmHg 73%
    16:00 +25°C° 0.4 mm 2 mps 735 mmHg 74%
    17:00 +24°C° 0.3 mm 1 mps 734 mmHg 79%
    18:00 +23°C° 0.3 mm 1 mps 734 mmHg 84%
    19:00 +22°C° 0.3 mm 1 mps 734 mmHg 89%
    20:00 +21°C° 0.2 mm 1 mps 735 mmHg 91%
    21:00 +19°C° 0.2 mm 1 mps 735 mmHg 92%
    22:00 +18°C° 0.2 mm 1 mps 735 mmHg 94%
    23:00 +16°C° 0.2 mm 1 mps 735 mmHg 94%

    1 June, Thursday

    Time Temperature Precipitation Wind Pressure Humidity
    00:00 +16°C° 0.2 mm 1 mps 735 mmHg 95%
    01:00 +16°C° 0.2 mm 1 mps 735 mmHg 95%
    02:00 +16°C° 0.1 mm 1 mps 735 mmHg 95%
    03:00 +15°C° 0.1 mm 1 mps 735 mmHg 94%
    04:00 +15°C° 0.1 mm 1 mps 735 mmHg 94%
    05:00 +16°C° 0.1 mm 1 mps 735 mmHg 93%
    06:00 +16°C° 0.1 mm 1 mps 735 mmHg 92%
    07:00 +16°C° 0.1 mm 1 mps 735 mmHg 91%
    08:00 +18°C° 0.1 mm 1 mps 735 mmHg 88%
    09:00 +18°C° 0.1 mm 1 mps 736 mmHg 85%
    10:00 +19°C° 0.1 mm 1 mps 736 mmHg 83%
    11:00 +20°C° 0.1 mm 1 mps 736 mmHg 79%
    12:00 +21°C° 0.1 mm 1 mps 736 mmHg 76%
    13:00 +22°C° 0.1 mm 1 mps 735 mmHg 73%
    14:00 +22°C° 0.2 mm 1 mps 735 mmHg 72%
    15:00 +22°C° 0.2 mm 1 mps 735 mmHg 72%
    16:00 +22°C° 0.2 mm 1 mps 735 mmHg 71%
    17:00 +22°C° 0.4 mm 1 mps 735 mmHg 76%
    18:00 +21°C° 0.4 mm 1 mps 735 mmHg 81%
    19:00 +20°C° 0.4 mm 1 mps 735 mmHg 86%
    20:00 +18°C° 0 mm 1 mps 735 mmHg 88%
    21:00 +15°C° 0 mm 1 mps 735 mmHg 90%
    22:00 +13°C° 0 mm 1 mps 735 mmHg 92%
    23:00 +13°C° 0 mm 1 mps 735 mmHg 92%

    2 June, Friday

    Time Temperature Precipitation Wind Pressure Humidity
    00:00 +12°C° 0 mm 1 mps 735 mmHg 91%
    01:00 +12°C° 0 mm 1 mps 735 mmHg 91%
    02:00 +10°C° 0 mm 0 mps 735 mmHg 92%
    03:00 +10°C° 0 mm 0 mps 735 mmHg 92%
    04:00 +10°C° 0 mm 0 mps 735 mmHg 92%
    05:00 +12°C° 0 mm 0 mps 735 mmHg 87%
    06:00 +14°C° 0 mm 0 mps 735 mmHg 82%
    07:00 +17°C° 0 mm 0 mps 736 mmHg 77%
    08:00 +20°C° 0 mm 1 mps 736 mmHg 73%
    09:00 +22°C° 0 mm 1 mps 736 mmHg 69%
    10:00 +23°C° 0 mm 1 mps 736 mmHg 65%
    11:00 +24°C° 0.1 mm 1 mps 735 mmHg 62%
    12:00 +25°C° 0.1 mm 1 mps 735 mmHg 59%
    13:00 +25°C° 0.1 mm 1 mps 735 mmHg 55%
    14:00 +25°C° 0.1 mm 1 mps 735 mmHg 55%
    15:00 +25°C° 0.1 mm 1 mps 735 mmHg 55%
    16:00 +25°C° 0.1 mm 1 mps 735 mmHg 55%
    17:00 +24°C° 0 mm 1 mps 734 mmHg 63%
    18:00 +23°C° 0 mm 1 mps 734 mmHg 71%
    19:00 +21°C° 0 mm 1 mps 734 mmHg 79%
    20:00 +19°C° 0 mm 1 mps 734 mmHg 83%
    21:00 +16°C° 0 mm 1 mps 734 mmHg 86%
    22:00 +14°C° 0 mm 1 mps 734 mmHg 90%
    23:00 +13°C° 0 mm 1 mps 734 mmHg 91%

    3 June, Saturday

    Time Temperature Precipitation Wind Pressure Humidity
    00:00 +13°C° 0 mm 1 mps 734 mmHg 91%
    01:00 +12°C° 0 mm 1 mps 734 mmHg 92%
    02:00 +12°C° 0 mm 1 mps 734 mmHg 92%
    03:00 +12°C° 0 mm 1 mps 734 mmHg 92%
    04:00 +12°C° 0 mm 1 mps 734 mmHg 92%
    05:00 +14°C° 0 mm 1 mps 734 mmHg 87%
    06:00 +18°C° 0 mm 1 mps 734 mmHg 82%
    07:00 +20°C° 0 mm 1 mps 735 mmHg 77%
    08:00 +21°C° 0 mm 2 mps 735 mmHg 73%
    09:00 +23°C° 0 mm 2 mps 735 mmHg 68%
    10:00 +25°C° 0 mm 3 mps 735 mmHg 63%
    11:00 +25°C° 0 mm 3 mps 735 mmHg 61%
    12:00 +26°C° 0 mm 3 mps 734 mmHg 59%
    13:00 +27°C° 0 mm 3 mps 734 mmHg 57%
    14:00 +27°C° 0 mm 3 mps 734 mmHg 58%
    15:00 +27°C° 0 mm 4 mps 734 mmHg 60%
    16:00 +27°C° 0 mm 4 mps 734 mmHg 61%
    17:00 +25°C° 0 mm 4 mps 734 mmHg 67%
    18:00 +24°C° 0 mm 3 mps 734 mmHg 73%
    19:00 +22°C° 0 mm 3 mps 733 mmHg 79%
    20:00 +20°C° 0 mm 3 mps 734 mmHg 82%
    21:00 +19°C° 0 mm 3 mps 734 mmHg 85%
    22:00 +17°C° 0 mm 2 mps 734 mmHg 88%
    23:00 +17°C° 0 mm 2 mps 734 mmHg 89%
    Show more